Regional Weather Roundup
Issued by NWS Sterling, VA

Home | Current Version | Previous Version | Text Only | Print | Product List | Glossary On
Versions: 1 2 3 4 5 6 7 8 9 10 11 12 13 14 15 16 17 18 19 20 21 22 23 24 25 26 27 28 29 30 31 32 33 34 35 36 37 38 39 40 41 42 43 44 45 46 47 48 49 50
000
ASUS41 KLWX 261310
RWRLWX

REGIONAL WEATHER ROUNDUP
NATIONAL WEATHER SERVICE BALTIMORE MD/WASHINGTON DC
900 AM EDT SAT JUL 26 2014

Note: "FAIR" indicates few or no clouds below 12,000 feet
with no significant weather and/or obstructions to visibility.
 TC=TEMPERATURE CELSIUS

 * =Non NWS site. Station does not report precipitation (e.g. rain,
    snow, etc.), thunder, or fog.

DCZ001-MDZ009-015-VAZ040>042-051-053>054-261400-
WASHINGTON METRO
  /KDAA//-FT BELVOIR

CITY           SKY/WX    TMP DP  RH WIND       PRES   REMARKS
WASHINGTON NAT PTSUNNY   76  67  73 S8        30.01S
DULLES         PTSUNNY   71  64  78 CALM      30.01R
ANDREWS AFB    PTSUNNY   72  67  84 SW10      30.00S
QUANTICO       PTSUNNY   74  66  76 SW6       30.02R
COLLEGE PARK*  PTSUNNY   75  68  78 S3        30.00R
LEESBURG*      CLOUDY    72  68  88 CALM      30.02S
GAITHERSBURG*  PTSUNNY   72  64  78 W5        30.05R

$$

MDZ006>007-011-014-261400-
BALTIMORE METRO

CITY           SKY/WX    TMP DP  RH WIND       PRES   REMARKS
BWI AIRPORT    CLOUDY    71  66  84 CALM      29.99F
MD SCIENCE CTR   N/A     74  65  73 MISG      29.99F
MARTIN STATE   PTSUNNY   73  70  88 CALM      30.01S
ANNAPOLIS      CLOUDY    71  67  87 S3        29.99F
FORT MEADE*    CLOUDY    72  64  78 SW5       30.02S

$$

MDZ012-015-019>023-261400-
MARYLAND EASTERN SHORE

CITY           SKY/WX    TMP DP  RH WIND       PRES   REMARKS
OCEAN CITY     CLOUDY    75  67  76 VRB3      30.03S
SALISBURY      NOT AVBL
BAY BRIDGE AP*   N/A     72  68  88 S5        30.01R
CAMBRIDGE*     CLOUDY    77  66  69 S6        30.01S
EASTON*        CLOUDY    75  68  78 S7        30.05S

$$

MDZ017>025-261400-
SOUTHERN MARYLAND

CITY           SKY/WX    TMP DP  RH WIND       PRES   REMARKS
PATUXENT RIVER PTSUNNY   73  65  75 SW9       30.01S
ST INIGOES     PTSUNNY   76  65  68 S7        30.01F
LEONARDTOWN*   PTSUNNY   75  64  69 SW8       30.02S

$$

MDZ003>005-261400-
NORTH CENTRAL MARYLAND

CITY           SKY/WX    TMP DP  RH WIND       PRES   REMARKS
FREDERICK*     PTSUNNY   70  66  88 CALM      30.04R
HAGERSTOWN APT PTSUNNY   67  60  78 NW5       30.03R
WESTMINSTER*   PTSUNNY   70  66  88 NW3       30.02S

$$

MDZ501>502-261400-
WESTERN MARYLAND

CITY           SKY/WX    TMP DP  RH WIND       PRES   REMARKS
OAKLAND*       PTSUNNY   61  55  82 W5        30.10F
CUMBERLAND*    MOSUNNY   73  61  64 CALM      30.07S

$$

VAZ025>031-261400-
SHENANDOAH VALLEY

CITY           SKY/WX    TMP DP  RH WIND       PRES   REMARKS
WINCHESTER*    PTSUNNY   73  61  64 NW6       30.03S
STAUNTON*      PTSUNNY   71  65  81 N3        30.07R

$$

WVZ021-048>050-054>055-261400-
EASTERN WEST VIRGINIA PANHANDLE

CITY           SKY/WX    TMP DP  RH WIND       PRES   REMARKS
MARTINSBURG    PTSUNNY   69  62  78 CALM      30.03S
PETERSBURG*    CLOUDY    67  57  71 CALM      30.05S

$$

VAZ036>039-050-261400-
CENTRAL FOOTHILLS

CITY           SKY/WX    TMP DP  RH WIND       PRES   REMARKS
CHARLOTTESVILL CLOUDY    70  66  87 CALM      30.02S
ORANGE*        CLOUDY    70  64  83 S3        30.03S

$$

VAZ055>057-261400-
NORTH AND CENTRAL PIEDMONT

CITY           SKY/WX    TMP DP  RH WIND       PRES   REMARKS
FREDERICKSBRG* PTSUNNY   74  68  81 CALM      30.00R
STAFFORD*      PTSUNNY   72  72 100 CALM      30.05S

$$

NCZ024-NYZ072-PAZ021-071-VAZ022-071-261400-
OTHER REGIONAL OBSERVATIONS

CITY           SKY/WX    TMP DP  RH WIND       PRES   REMARKS
NEW YORK CITY  MOSUNNY   74  56  53 VRB3      30.03S
PHILADELPHIA   CLOUDY    73  62  68 S6        30.01S
PITTSBURGH     MOSUNNY   68  60  75 S8        30.01F
ROANOKE        MOSUNNY   75  66  73 SW6       30.07R
RICHMOND       PTSUNNY   77  69  76 S8        30.02F
RALEIGH        CLOUDY    75  71  87 SW3       30.05S FOG

$$

ANZ530>537-261400-
MARINE OBSERVATIONS

STATION/POSITION TIME  TEMP    WIND        PRES
                       AIR SEA DIR/SP/G
                 (UTC) (F)     (DEG/KT/KT) (MB)
THOMAS PT LIGHT  1300   72 78  210/  9/ 10 1016.5R
BALT KEY BRIDGE  1300   71     160/  2/  3 1015.3F
COVE POINT       1300   73     210/ 10/ 12 1016.1S
LEWISETTA        1300   74 78  220/ 11/ 14 1016.2F
SOLOMONS ISLAND  1300      81                N/A
PINEY POINT      1300          230/ 15/ 17   N/A

$$




USA.gov is the U.S. government's official web portal to all federal, state and local government web resources and services.